Regional Weather Roundup
Issued by NWS

Home | Current Version | Previous Version | Graphics & Text | Print | Product List | Glossary Off
Versions: 1 2 3 4 5 6 7 8 9 10 11 12 13 14 15 16 17 18 19 20 21 22 23 24 25 26 27 28 29 30 31 32 33 34 35 36 37 38 39 40 41 42 43 44 45 46 47 48 49 50

070
ASUS43 KMPX 281210
RWRMN
WEATHER ROUNDUP FOR MINNESOTA
NATIONAL WEATHER SERVICE TWIN CITIES/CHANHASSEN MN
700 AM CDT FRI JUL 28 2017


NOTE: "FAIR" INDICATES FEW OR NO CLOUDS BELOW 12,000 FEET WITH NO
SIGNIFICANT WEATHER AND/OR OBSTRUCTIONS TO VISIBILITY. N/A MEANS
CURRENT SKY AND/OR WEATHER CONDITIONS ARE NOT AVAILABLE.

MNZ060>063-068>070-281300-
   Twin Cities Metro

CITY           SKY/WX    TMP DP  RH WIND       PRES   REMARKS
TWIN CITIES    PTCLDY    67  59  75 VRB6      30.08S
6HR MIN TEMP:  65; 6HR MAX TEMP:  73;

ST PAUL        SUNNY     66  61  84 NE3       30.09R
CRYSTAL        CLEAR     63  58  83 N3        30.08R
BLAINE         PTCLDY    63  63 100 CALM      30.09R
LAKEVILLE      CLEAR     61  61 100 CALM      30.08S
EDEN PRAIRIE   CLEAR     67  61  81 NE5       30.07S
6HR MIN TEMP:  65; 6HR MAX TEMP:  72;

SOUTH ST PAUL  CLEAR     67  60  78 CALM      30.08S
LAKE ELMO      FAIR      63  61  94 NE3       30.10R
$$
MNZ001>005-007-008-013>017-022>024-027-028-281300-
   Northwest Minnesota

CITY           SKY/WX    TMP DP  RH WIND       PRES   REMARKS
BEMIDJI        CLEAR     55  53  93 CALM      30.12S
HALLOCK        CLEAR     59  57  94 SE6       30.08S
ROSEAU         CLEAR     59  54  82 SW5       30.11R
WARROAD        CLEAR     59  55  88 SW3       30.11S
THIEF RVR FALL CLEAR     59  58  96 SE5       30.12R
CROOKSTON      CLEAR     61  59  94 SE6       30.10S
FOSSTON        CLEAR     57  55  94 CALM      30.13R FOG
DETROIT LAKES  CLEAR     63  59  88 CALM      30.13S
MOORHEAD       PTCLDY    59  57  94 CALM      30.10S FOG
PARK RAPIDS    PTCLDY    59  56  89 CALM      30.12R
MAHNOMEN       FAIR      59  56  88 CALM      30.11S
$$
MNZ006-009>011-018-025>026-281300-
   North Central Minnesota

CITY           SKY/WX    TMP DP  RH WIND       PRES   REMARKS
BAUDETTE       SUNNY     58  57  97 CALM      30.10S
FLAG ISLAND    SUNNY     68  63  83 CALM      30.08S HAZE
INTL FALLS     SUNNY     55  53  93 CALM      30.11S
6HR MIN TEMP:  50; 6HR MAX TEMP:  56;

WASKISH        CLEAR     55  55 100 CALM      30.12S
BIG FORK       MOSUNNY   54  52  94 CALM      30.13S
LONGVILLE      CLEAR     54  54 100 CALM      30.13R FOG
GRAND RAPIDS   SUNNY     56  55  97 SE5       30.16R
CRANE LAKE     SUNNY     50  48  93 CALM      30.14S
ORR            MOSUNNY   55  54  94 CALM      30.11S
COOK             N/A     54  52  94 CALM      30.15R
WALKER         FAIR      54  54  99 CALM      30.12S FOG
$$
MNZ012-019>021-037-281300-
   Northeast Minnesota

CITY           SKY/WX    TMP DP  RH WIND       PRES   REMARKS
DULUTH         SUNNY     58  53  84 CALM      30.13S
6HR MIN TEMP:  50; 6HR MAX TEMP:  58;

ELY            SUNNY     54  52  94 CALM      30.14S
HIBBING        SUNNY     52  52 100 CALM      30.15R
EVELETH        SUNNY     53  50  91 CALM      30.15S
DULUTH HARBOR  SUNNY     64  55  72 NE5       30.13R
TWO HARBORS    SUNNY     57  52  82 CALM      30.12S
SILVER BAY     SUNNY     52  52 100 CALM      30.12S
GRAND MARAIS     N/A     61  56  83 CALM      30.12R
G MARAIS ARPRT SUNNY     54  48  82 CALM      30.16R
$$
MNZ029>031-032-039>041-046>048-054>057-064-281300-
   West Central Minnesota

CITY           SKY/WX    TMP DP  RH WIND       PRES   REMARKS
FERGUS FALLS   PTCLDY    64  63  94 E5        30.09S
WHEATON        CLOUDY    63  61  94 CALM      30.11R FOG
MORRIS         PTCLDY    63  59  88 E5        30.09S
ALEXANDRIA     CLEAR     63  62  97 CALM      30.12S
ELBOW LAKE     FAIR      66  63  87 CALM      30.11R
WADENA         CLEAR     55  55 100 CALM      30.12R
GLENWOOD       CLEAR     63  63 100 CALM      30.12R FOG
APPLETON       CLOUDY    63  61  94 CALM      30.09S
BENSON         MOCLDY    59  57  94 CALM      30.11S FOG
ORTONVILLE       N/A     66  63  88 N3          N/A
MADISON        CLOUDY    66  66 100 CALM      30.09S
WILLMAR        FAIR      64  63  94 CALM      30.11S
$$
MNZ033>034-036-042>043-049>051-058-059-281300-
   Central Minnesota

CITY           SKY/WX    TMP DP  RH WIND       PRES   REMARKS
ST CLOUD       CLEAR     60  60 100 CALM      30.10S
6HR MIN TEMP:  57; 6HR MAX TEMP:  62;

SAUK CENTRE    FAIR      59  59  99 CALM      30.11S
PAYNESVILLE    CLEAR     60  58  95 CALM      30.11S
AITKIN         SUNNY     54  52  94 CALM      30.13R FOG
PINE RIVER     CLEAR     55  55 100 MISG      30.16R
BRAINERD       CLEAR     60  59  96 NE3       30.13R FOG
STAPLES        FOG       55  55 100 CALM      30.12S VSB 1/4
LONG PRAIRIE   FAIR      59  59 100 CALM      30.12S FOG
LITTLE FALLS   CLEAR     57  55  94 CALM      30.11S
LITCHFIELD     CLEAR     66  64  94 CALM      30.10S
BUFFALO        CLEAR     62  59  88 CALM      30.11S
MAPLE LAKE     CLEAR     62  61  97 CALM      30.11R
HUTCHINSON     CLEAR     65  63  91 NE3       30.10S
$$
MNZ037-044-045-052-053-281300-
   East Central Minnesota

CITY           SKY/WX    TMP DP  RH WIND       PRES   REMARKS
PRINCETON      CLEAR     61  61 100 CALM      30.11S
MORA           SUNNY     55  55 100 CALM      30.14R
CAMBRIDGE      SUNNY     63  59  88 N3        30.09S
RUSH CITY      MOSUNNY   59  58  96 CALM      30.11R
MOOSE LAKE     SUNNY     55  55 100 CALM      30.12R
HINCKLEY       FAIR      59  59 100 N3        30.13R
CLOQUET        SUNNY     54  52  94 CALM      30.14R
MCGREGOR       SUNNY     54  54 100 CALM      30.14S
$$
MNZ071>073-080-081-089-090-097-098-281300-
   Southwest Minnesota

CITY           SKY/WX    TMP DP  RH WIND       PRES   REMARKS
MONTEVIDEO     CLOUDY    64  61  88 CALM      30.09S
CANBY          CLOUDY    65  63  94 CALM      30.10F
MARSHALL       CLOUDY    64  62  93 MISG      30.10R FOG
REDWOOD FALLS  PTCLDY    64  60  87 N3        30.08R
OLIVIA         PTCLDY    63  59  88 CALM      30.08S
PIPESTONE      CLOUDY    64  59  82 CALM      30.11R
WINDOM         MOCLDY    61  59  94 CALM      30.10R
WORTHINGTON    CLEAR     57  55  93 NW3       30.11R
JACKSON        PTCLDY    59  59 100 CALM      30.10R
TRACY          CLOUDY    66  63  92 CALM      30.10S
SLAYTON        HVY RAIN  60  57  92 CALM      30.11S
$$
MNZ065>067-074>077-082>085-091>093-281300-
   South Central Minnesota

CITY           SKY/WX    TMP DP  RH WIND       PRES   REMARKS
MANKATO        PTCLDY    65  61  87 MISG      30.08S
NEW ULM        MOCLDY    64  61  88 CALM      30.08R
ST JAMES       PTCLDY    61  61 100 CALM      30.09S FOG
FAIRMONT       MOCLDY    63  62  97 N5        30.09R FOG
GLENCOE        CLEAR     63  63 100 CALM      30.08S
FARIBAULT      PTCLDY    63  61  94 N3        30.08S
OWATONNA       PTCLDY    63  61  94 CALM      30.08S
WASECA         PTCLDY    63  61  94 N5        30.09S
ALBERT LEA     PTCLDY    64  63  94 CALM      30.07S
$$
MNZ078>079-086>088-094>096-281300-
   Southeast Minnesota

CITY           SKY/WX    TMP DP  RH WIND       PRES   REMARKS
ROCHESTER      MOSUNNY   63  62  97 N6        30.08S
6HR MIN TEMP:  60; 6HR MAX TEMP:  66;

RED WING       SUNNY     63  59  88 CALM      30.07R
STANTON        CLEAR     59  58  96 CALM      30.07S FOG
DODGE CENTER   PTCLDY    63  59  88 N3        30.08S
WINONA         SUNNY     61  61 100 CALM      30.07R
AUSTIN         PTCLDY    63  61  94 CALM      30.07R
PRESTON        SUNNY     62  59  91 CALM      30.08R
$$
ABBREVIATIONS USED IN REMARKS
   TC - TEMPERATURES IN CELSIUS
  WCI - WIND CHILL INDEX
   HX - HEAT INDEX
  VSB - VISIBILITY
$$




USA.gov is the U.S. government's official web portal to all federal, state and local government web resources and services.